Temp
-13 -13 -13 -13 -13 -13 -13 -13 -13 -13 -13 -13 -13 -13 -13 -13 -13 -13 -13 -13 -13 -13 -13 -13 -13 -13 -13 -13 -13 -13 -13 -14 -14 -14 -14 -13 -13 -13 -13 -13 -13 -13
-13 -13 -13 -13 -13 -13 -13 -13 -13 -13 -13 -13 -13 -13 -13 -13 -13 -13 -13 -13 -13 -13 -13 -13 -13 -13 -13 -13 -14 -14 -14 -14 -14 -14 -14 -14 -13 -13 -13 -13 -13 -13
-13 -13 -13 -13 -13 -13 -13 -13 -13 -13 -13 -13 -13 -13 -13 -13 -13 -13 -13 -13 -13 -13 -13 -13 -13 -14 -14 -14 -14 -14 -14 -14 -14 -14 -14 -14 -14 -13 -13 -13 -13 -13
-13 -13 -13 -13 -13 -13 -14 -14 -14 -14 -14 -14 -13 -13 -13 -13 -13 -13 -13 -13 -13 -13 -14 -14 -14 -14 -14 -14 -14 -14 -14 -14 -14 -14 -14 -14 -14 -14 -13 -13 -13 -13
-14 -13 -13 -13 -13 -14 -14 -14 -14 -14 -14 -14 -14 -14 -14 -14 -14 -14 -14 -14 -14 -14 -14 -14 -14 -14 -14 -14 -14 -14 -14 -14 -14 -14 -14 -14 -14 -14 -14 -13 -13 -13
-13 -13 -13 -14 -14 -14 -14 -14 -14 -14 -14 -14 -14 -14 -14 -14 -14 -14 -14 -14 -14 -14 -14 -14 -14 -14 -14 -14 -14 -14 -14 -14 -14 -14 -14 -14 -14 -14 -14 -14 -13 -14
-14 -13 -14 -14 -14 -14 -14 -14 -14 -14 -14 -14 -14 -14 -14 -14 -14 -14 -14 -14 -14 -14 -14 -14 -14 -14 -14 -14 -14 -14 -14 -15 -15 -15 -14 -14 -14 -14 -14 -14 -14 -14
-14 -14 -14 -14 -14 -14 -14 -14 -14 -14 -14 -14 -14 -14 -13 -13 -13 -14 -14 -14 -14 -14 -14 -14 -14 -14 -14 -14 -14 -15 -15 -15 -15 -15 -14 -14 -14 -14 -14 -14 -14 -14
-14 -14 -14 -14 -14 -14 -14 -14 -14 -14 -14 -14 -14 -14 -13 -13 -14 -14 -14 -14 -14 -14 -14 -14 -14 -14 -15 -15 -15 -15 -15 -15 -15 -15 -15 -14 -14 -14 -14 -14 -14 -14
-14 -14 -14 -14 -14 -14 -14 -14 -14 -14 -14 -14 -14 -14 -14 -14 -14 -14 -14 -14 -14 -14 -14 -15 -15 -15 -15 -15 -15 -15 -15 -15 -15 -15 -15 -14 -14 -14 -14 -14 -14 -14
-14 -14 -15 -15 -14 -14 -14 -14 -14 -14 -14 -14 -14 -14 -14 -14 -14 -14 -14 -14 -14 -14 -15 -15 -15 -15 -15 -15 -15 -15 -15 -15 -15 -15 -15 -15 -14 -14 -14 -14 -14 -14
-15 -15 -15 -15 -15 -15 -14 -14 -14 -14 -14 -14 -14 -14 -14 -14 -14 -14 -14 -14 -14 -14 -14 -14 -15 -15 -15 -15 -15 -15 -15 -15 -15 -15 -15 -15 -15 -15 -15 -14 -14 -14
-15 -15 -15 -15 -15 -15 -14 -14 -14 -14 -14 -14 -14 -14 -14 -14 -14 -14 -14 -14 -14 -14 -14 -15 -15 -15 -15 -15 -15 -15 -15 -15 -15 -15 -15 -15 -15 -15 -15 -15 -14 -14
-15 -15 -15 -15 -15 -15 -15 -14 -14 -14 -14 -14 -14 -14 -14 -14 -14 -14 -14 -14 -14 -14 -15 -15 -15 -15 -15 -15 -15 -15 -15 -15 -16 -15 -15 -15 -15 -15 -15 -15 -15 -14
-15 -15 -15 -15 -15 -14 -14 -14 -14 -14 -14 -14 -14 -14 -14 -14 -14 -14 -14 -14 -14 -15 -15 -15 -15 -15 -15 -15 -15 -15 -16 -16 -16 -15 -15 -15 -15 -15 -15 -15 -15 -15
-14 -14 -14 -14 -14 -14 -14 -14 -14 -14 -14 -14 -14 -14 -14 -14 -14 -14 -14 -15 -15 -15 -15 -15 -15 -15 -15 -15 -15 -16 -16 -16 -16 -15 -15 -15 -15 -15 -15 -15 -15 -15
-14 -14 -14 -14 -14 -14 -14 -14 -14 -14 -14 -14 -14 -14 -14 -14 -15 -15 -15 -15 -15 -15 -15 -15 -15 -15 -15 -16 -16 -16 -16 -16 -16 -15 -15 -15 -15 -15 -16 -16 -16 -16
-14 -14 -14 -14 -14 -14 -14 -14 -14 -14 -14 -14 -14 -14 -14 -15 -15 -15 -15 -15 -15 -15 -15 -15 -15 -16 -16 -16 -16 -16 -16 -16 -16 -16 -16 -16 -16 -16 -16 -16 -16 -16
-13 -13 -14 -14 -14 -14 -14 -14 -14 -14 -14 -14 -14 -14 -15 -15 -15 -15 -15 -15 -15 -15 -15 -15 -16 -16 -16 -16 -16 -16 -16 -16 -16 -16 -16 -16 -16 -16 -16 -16 -16 -16
-13 -13 -13 -13 -14 -14 -14 -14 -14 -14 -14 -14 -14 -15 -15 -15 -15 -15 -15 -15 -15 -15 -16 -16 -16 -16 -16 -16 -16 -16 -16 -16 -16 -16 -16 -16 -16 -17 -17 -17 -17 -17
-13 -13 -13 -14 -14 -14 -14 -14 -14 -14 -14 -14 -15 -15 -15 -15 -15 -15 -15 -15 -16 -16 -16 -16 -16 -16 -16 -16 -16 -16 -16 -16 -16 -16 -17 -17 -17 -17 -17 -17 -17 -17
-14 -14 -14 -14 -14 -14 -14 -14 -14 -15 -15 -15 -15 -15 -15 -15 -15 -15 -16 -16 -16 -16 -16 -16 -16 -16 -16 -16 -16 -16 -16 -17 -17 -17 -17 -17 -17 -17 -17 -17 -17 -17
-14 -14 -14 -14 -14 -14 -15 -15 -15 -15 -15 -15 -15 -15 -15 -15 -16 -16 -16 -16 -16 -16 -16 -16 -16 -17 -17 -17 -17 -17 -17 -17 -17 -17 -17 -17 -17 -17 -17 -17 -17 -18
-14 -14 -14 -14 -14 -15 -15 -15 -15 -15 -15 -16 -16 -16 -16 -16 -16 -16 -16 -16 -16 -16 -16 -16 -17 -17 -17 -17 -17 -17 -17 -17 -17 -17 -17 -17 -17 -17 -17 -18 -18 -18
-14 -14 -14 -14 -15 -15 -15 -15 -15 -15 -16 -16 -16 -16 -16 -16 -16 -16 -16 -16 -16 -16 -16 -17 -17 -17 -17 -17 -17 -17 -17 -17 -17 -17 -17 -17 -18 -18 -18 -18 -18 -18
-14 -14 -14 -15 -15 -15 -15 -15 -15 -15 -15 -16 -16 -16 -16 -16 -16 -16 -16 -16 -16 -16 -17 -17 -17 -17 -17 -17 -17 -17 -17 -18 -18 -18 -18 -18 -18 -18 -18 -18 -18 -19
Height
5812 5813 5814 5814 5815 5815 5815 5816 5816 5817 5817 5816 5816 5816 5816 5816 5815 5815 5814 5814 5814 5813 5812 5812 5811 5811 5810 5809 5808 5807 5806 5805 5804 5802 5801 5799 5798 5796 5795 5794 5792 5791
5809 5810 5811 5812 5812 5813 5813 5814 5814 5814 5815 5814 5814 5814 5813 5813 5813 5812 5812 5811 5811 5810 5810 5809 5809 5808 5807 5807 5806 5805 5803 5802 5800 5799 5798 5796 5795 5793 5792 5790 5789 5787
5807 5808 5809 5809 5810 5810 5810 5811 5811 5811 5812 5812 5812 5811 5811 5811 5810 5810 5809 5809 5808 5808 5807 5807 5806 5805 5805 5804 5803 5801 5800 5798 5797 5795 5794 5793 5791 5790 5788 5787 5785 5783
5805 5806 5807 5807 5807 5808 5808 5808 5808 5809 5809 5810 5809 5809 5808 5808 5808 5807 5807 5806 5806 5805 5805 5805 5804 5803 5802 5801 5800 5798 5797 5795 5793 5792 5790 5789 5788 5786 5785 5783 5781 5779
5803 5804 5805 5805 5805 5805 5805 5806 5806 5806 5807 5807 5806 5806 5806 5805 5805 5804 5804 5804 5804 5803 5802 5802 5801 5800 5799 5798 5796 5794 5793 5791 5790 5788 5787 5785 5784 5783 5781 5779 5778 5776
5802 5802 5802 5803 5803 5803 5803 5804 5804 5804 5804 5804 5804 5803 5803 5802 5802 5802 5802 5801 5801 5800 5799 5799 5798 5797 5795 5794 5792 5791 5789 5788 5786 5785 5783 5782 5780 5779 5777 5775 5773 5771
5799 5800 5800 5800 5801 5801 5801 5801 5801 5801 5801 5801 5801 5800 5800 5800 5799 5799 5799 5799 5798 5797 5796 5795 5794 5793 5792 5790 5788 5787 5785 5784 5782 5781 5780 5778 5776 5775 5773 5771 5769 5767
5797 5798 5798 5798 5798 5799 5799 5799 5799 5798 5798 5798 5798 5797 5797 5797 5797 5797 5796 5795 5795 5794 5793 5792 5791 5789 5788 5786 5784 5783 5782 5780 5779 5777 5776 5774 5772 5770 5769 5767 5765 5762
5794 5795 5795 5795 5796 5796 5796 5796 5796 5796 5796 5795 5795 5794 5794 5794 5794 5794 5793 5792 5791 5790 5789 5788 5787 5785 5784 5782 5781 5779 5778 5777 5775 5774 5772 5770 5768 5766 5764 5762 5760 5758
5791 5791 5792 5792 5793 5793 5793 5793 5793 5793 5792 5792 5792 5791 5791 5792 5791 5790 5790 5789 5788 5787 5785 5784 5783 5781 5780 5778 5777 5776 5775 5773 5771 5770 5768 5766 5763 5761 5759 5758 5756 5753
5788 5788 5789 5789 5790 5790 5790 5790 5790 5789 5789 5789 5789 5789 5789 5789 5788 5787 5786 5785 5784 5783 5782 5780 5779 5777 5776 5775 5773 5772 5771 5769 5767 5766 5763 5761 5759 5757 5755 5753 5751 5748
5785 5785 5786 5786 5786 5787 5787 5787 5786 5786 5786 5786 5786 5786 5786 5785 5784 5783 5782 5781 5780 5779 5778 5777 5775 5774 5772 5771 5770 5768 5767 5765 5763 5761 5759 5757 5755 5752 5750 5748 5746 5744
5781 5782 5782 5783 5783 5783 5783 5783 5782 5782 5782 5782 5782 5782 5782 5781 5780 5779 5778 5778 5777 5776 5774 5773 5772 5770 5769 5768 5766 5765 5763 5761 5759 5757 5754 5752 5750 5748 5745 5743 5741 5739
5778 5778 5778 5779 5779 5780 5780 5779 5778 5778 5779 5779 5779 5779 5778 5777 5776 5776 5775 5774 5773 5772 5771 5769 5768 5767 5765 5764 5763 5761 5759 5757 5755 5752 5750 5748 5746 5743 5741 5738 5736 5734
5774 5775 5775 5775 5776 5776 5776 5776 5775 5775 5775 5775 5775 5775 5774 5773 5773 5772 5771 5771 5769 5768 5767 5766 5764 5763 5762 5760 5758 5757 5755 5753 5750 5748 5746 5744 5741 5739 5736 5734 5731 5728
5771 5771 5771 5772 5772 5773 5773 5772 5772 5771 5772 5772 5772 5772 5771 5770 5770 5769 5768 5767 5766 5765 5764 5762 5761 5759 5758 5756 5754 5753 5751 5748 5746 5744 5742 5740 5737 5735 5732 5729 5726 5723
5767 5768 5768 5768 5769 5769 5769 5769 5769 5769 5769 5769 5768 5768 5768 5767 5766 5766 5765 5764 5763 5761 5760 5759 5757 5755 5754 5752 5750 5749 5747 5744 5742 5740 5738 5735 5733 5730 5728 5725 5722 5718
5764 5764 5764 5765 5765 5765 5766 5766 5766 5766 5766 5765 5765 5765 5765 5764 5763 5762 5761 5760 5759 5758 5756 5755 5753 5752 5750 5748 5747 5745 5743 5740 5739 5736 5734 5732 5729 5726 5723 5720 5717 5714
5761 5761 5761 5761 5762 5762 5762 5763 5763 5763 5762 5762 5762 5762 5761 5760 5760 5759 5758 5757 5755 5754 5753 5751 5750 5748 5747 5745 5743 5741 5739 5737 5735 5733 5731 5728 5725 5722 5719 5716 5712 5709
5758 5758 5758 5758 5759 5759 5760 5760 5760 5760 5759 5759 5759 5758 5758 5757 5757 5756 5754 5753 5752 5751 5749 5748 5746 5744 5743 5741 5739 5737 5736 5733 5731 5729 5727 5724 5721 5718 5715 5712 5708 5705
5756 5756 5756 5756 5756 5757 5757 5757 5757 5757 5757 5756 5756 5755 5755 5754 5753 5752 5751 5750 5749 5747 5745 5744 5742 5741 5739 5737 5736 5734 5732 5730 5728 5725 5723 5720 5717 5714 5711 5708 5704 5701
5753 5753 5753 5754 5754 5755 5754 5754 5754 5754 5754 5753 5753 5752 5751 5750 5749 5748 5747 5746 5745 5743 5741 5740 5738 5737 5735 5734 5732 5731 5729 5727 5724 5721 5719 5717 5714 5710 5707 5704 5700 5697
5751 5751 5751 5751 5752 5751 5751 5751 5751 5751 5750 5750 5749 5749 5748 5747 5746 5745 5744 5742 5741 5739 5738 5736 5735 5734 5732 5731 5729 5727 5725 5723 5721 5718 5715 5713 5710 5707 5703 5700 5696 5693
5749 5749 5749 5749 5748 5748 5748 5748 5747 5747 5747 5746 5746 5745 5744 5743 5742 5741 5740 5739 5737 5736 5734 5733 5732 5731 5729 5728 5726 5724 5722 5720 5717 5715 5712 5709 5706 5703 5699 5696 5692 5689
5746 5746 5746 5746 5745 5745 5745 5745 5744 5744 5743 5743 5742 5741 5740 5739 5738 5737 5736 5735 5734 5733 5731 5730 5729 5728 5726 5724 5722 5720 5718 5716 5714 5711 5708 5706 5702 5699 5696 5692 5689 5685
5743 5743 5743 5743 5742 5742 5742 5741 5741 5740 5740 5739 5738 5738 5737 5736 5735 5734 5733 5732 5731 5730 5729 5728 5726 5725 5723 5721 5719 5717 5715 5713 5710 5708 5705 5702 5699 5695 5692 5689 5685 5682
Wind_Speed
17 16 15 15 14 15 16 17 17 17 17 18 19 19 19 19 19 18 18 18 18 18 19 19 20 21 22 23 24 25 26 27 27 28 28 29 29 30 31 31 32 34
16 16 16 16 17 18 18 17 17 17 17 19 20 20 20 19 19 19 18 18 18 19 20 20 21 22 23 24 25 25 26 27 27 27 28 29 30 31 32 33 34 36
16 16 17 18 18 18 17 17 18 18 19 20 20 20 20 19 19 19 19 19 20 20 21 22 23 24 25 25 25 26 26 27 27 28 29 30 31 33 34 35 37 37
16 17 18 18 17 17 17 18 19 20 20 21 21 20 20 20 20 20 20 21 21 22 23 23 24 25 26 27 27 27 27 28 28 29 30 32 34 35 36 37 38 38
16 18 19 17 16 16 17 19 20 21 21 21 21 21 21 21 21 21 22 22 23 24 24 25 26 27 28 28 28 28 28 29 30 31 32 34 35 36 37 38 38 39
17 18 17 16 16 17 18 20 21 22 22 22 22 22 22 22 22 23 23 24 24 25 25 26 27 28 29 29 29 30 30 30 31 32 33 35 36 37 38 39 39 40
16 16 16 16 17 18 19 21 22 22 23 23 23 23 23 23 24 24 24 24 25 25 26 27 29 29 30 30 30 31 31 32 33 34 35 36 38 38 39 40 41 41
16 16 16 17 18 20 21 22 23 24 24 24 24 24 24 25 25 25 25 25 25 26 28 29 30 30 30 31 32 32 33 33 34 35 36 37 39 40 41 42 42 42
19 18 19 20 21 22 23 24 25 25 25 25 25 25 26 26 26 26 25 26 27 28 30 31 31 31 32 33 33 34 34 35 35 36 37 38 40 42 42 42 42 42
22 21 22 23 24 24 25 26 27 27 26 26 27 27 27 27 27 27 27 27 29 31 31 32 32 33 34 34 35 35 35 35 36 37 38 40 42 42 43 43 42 42
23 23 24 26 26 27 27 28 29 28 28 27 27 27 27 27 28 28 28 29 31 31 32 33 34 34 35 35 36 36 36 36 37 38 40 42 42 42 43 43 42 42
23 24 26 27 28 28 28 28 28 28 28 27 27 27 27 28 29 29 29 30 31 32 33 34 35 36 36 36 37 37 37 38 39 40 41 42 42 43 43 43 43 43
24 26 28 29 28 28 28 29 28 27 26 26 26 27 27 28 28 29 30 31 32 34 35 36 36 36 37 37 37 38 39 39 40 41 42 42 42 43 44 44 44 44
25 27 29 29 28 28 29 30 29 27 26 26 26 27 28 29 29 30 31 33 34 35 36 36 37 37 37 38 39 39 40 41 41 42 42 42 43 44 45 45 45 45
25 27 28 27 27 27 27 27 27 27 26 25 26 27 29 30 31 32 33 34 35 35 36 37 37 38 39 39 39 40 41 41 42 42 42 43 44 45 45 45 46 46
25 27 29 29 28 27 26 24 24 24 25 26 27 29 30 30 31 33 34 34 35 36 37 38 38 39 40 40 40 41 41 42 42 42 43 44 45 45 45 45 46 46
26 27 29 30 29 27 25 25 25 25 26 28 29 30 30 30 32 33 34 35 37 38 39 40 40 40 40 40 41 41 41 41 42 42 43 44 44 44 45 45 46 46
24 25 26 27 27 26 25 25 26 27 29 30 29 29 29 31 33 34 36 38 39 39 40 40 40 40 40 41 41 41 41 41 41 42 43 43 43 44 44 45 45 45
17 18 19 21 23 24 24 25 26 27 28 28 28 29 30 33 35 37 38 39 39 39 39 39 40 40 41 41 41 41 41 41 41 41 41 42 42 43 44 44 44 44
14 14 16 18 20 22 24 26 26 26 27 28 29 31 33 35 37 38 38 38 38 38 39 40 40 41 41 41 41 40 40 39 39 39 40 41 42 43 43 43 43 43
15 15 16 17 19 21 23 25 26 27 29 30 32 34 35 36 36 36 37 37 39 39 40 40 40 40 40 39 39 38 37 37 37 38 39 40 41 41 41 41 42 42
17 16 17 18 19 21 23 25 27 28 30 31 32 33 33 33 34 36 37 38 38 37 36 36 37 37 37 36 35 34 34 35 36 37 39 40 40 40 40 41 41 42
17 17 18 19 20 22 24 26 27 28 29 30 31 31 32 34 35 36 36 34 33 32 32 33 34 33 33 32 32 32 33 34 35 37 38 38 39 39 39 40 41 42
17 18 19 20 22 23 24 26 27 28 29 29 30 32 33 34 34 33 31 30 30 31 31 30 30 29 29 29 30 31 32 33 35 36 37 37 38 38 39 40 41 42
18 19 20 21 23 24 25 26 27 28 28 30 31 33 33 33 32 31 29 29 28 28 27 27 27 27 28 29 30 31 32 33 35 35 36 36 37 38 39 40 41 41
19 20 21 22 24 24 25 26 27 28 29 30 31 31 31 30 29 27 26 25 25 25 25 25 25 26 27 28 29 30 31 33 34 35 36 36 37 38 39 40 40 41
Wind_Direction
277 274 272 268 267 277 285 286 282 277 273 273 274 276 277 280 283 286 287 289 292 294 295 297 298 300 302 303 304 305 305 304 303 303 302 302 303 304 305 306 306 306
273 271 270 269 274 284 288 284 279 277 275 274 274 276 278 280 282 283 286 289 291 292 294 296 297 299 300 301 302 303 302 301 300 300 301 302 303 304 305 305 305 306
275 276 278 278 281 285 286 284 282 279 276 274 274 275 278 280 281 283 287 289 290 292 293 295 296 297 298 299 300 301 301 299 299 299 301 303 304 306 306 306 307 307
275 277 278 280 283 286 288 286 284 281 277 275 275 277 279 280 283 285 288 290 291 293 293 294 295 296 297 297 298 300 300 300 300 301 303 305 307 307 308 308 308 308
270 273 275 280 284 287 287 284 283 281 279 278 279 280 282 283 286 288 289 291 293 294 294 294 295 295 296 297 298 300 301 301 302 303 305 306 307 308 308 308 308 308
265 270 275 279 281 280 280 279 279 279 279 280 282 283 285 286 288 289 290 292 293 293 293 293 294 295 296 297 299 300 301 302 303 304 305 306 307 308 308 308 309 308
264 271 275 277 276 273 273 274 275 277 278 281 283 284 286 287 288 289 290 291 291 291 292 292 293 294 295 297 298 300 301 302 303 304 305 306 307 307 308 309 309 309
266 274 278 278 276 273 273 275 276 278 280 282 283 284 285 286 288 289 290 290 290 290 290 290 291 293 294 296 297 299 300 302 303 304 305 306 306 307 308 308 308 308
263 271 277 279 279 278 277 277 278 280 282 283 283 284 285 287 288 288 288 289 288 288 289 290 291 293 294 296 297 298 300 302 303 303 305 305 306 306 307 307 308 307
261 266 273 276 279 281 280 279 278 280 281 282 282 283 285 287 286 286 287 287 287 288 290 291 292 293 294 295 297 298 300 302 303 304 304 304 304 305 307 307 308 307
262 265 269 272 276 281 282 280 277 277 278 279 282 284 285 284 283 284 286 287 288 289 290 291 292 293 294 295 296 298 300 302 303 303 303 303 304 306 307 307 307 306
265 266 268 270 273 278 282 283 278 274 275 278 282 284 283 282 283 285 287 287 288 289 290 290 291 291 293 294 296 299 300 301 302 302 302 303 305 307 307 307 307 306
266 267 269 270 271 274 281 284 280 275 275 278 282 283 282 283 285 287 288 288 289 290 290 290 290 291 293 295 297 298 299 300 301 302 302 304 306 308 308 307 307 306
266 268 270 269 267 271 280 284 280 275 276 279 281 282 283 285 287 288 289 289 290 290 290 291 291 292 293 295 296 297 299 301 302 302 303 306 307 308 308 307 306 306
266 267 268 265 264 271 281 285 280 274 274 277 280 281 283 285 287 288 289 289 290 290 291 291 292 293 294 295 296 298 300 302 302 303 304 306 307 307 307 307 307 307
268 266 265 263 266 272 278 281 279 274 273 277 280 281 283 284 285 286 287 288 289 290 291 292 293 294 295 296 298 300 301 302 302 303 305 306 306 306 307 308 308 309
273 270 266 264 266 271 274 276 276 275 274 277 279 280 281 283 284 286 288 289 291 291 292 292 293 294 295 297 298 300 301 301 302 304 305 305 306 307 308 309 309 309
276 273 268 264 265 269 273 274 273 272 273 275 277 278 280 283 286 288 290 291 292 292 292 292 293 294 295 297 298 300 301 301 302 304 304 305 307 308 309 309 309 309
278 276 271 266 265 268 271 272 271 271 273 275 277 280 283 286 288 290 291 292 292 292 292 292 293 295 296 297 299 300 301 302 303 304 305 307 308 309 309 310 310 311
280 279 276 272 270 270 272 273 274 275 277 279 281 283 285 287 289 291 291 291 291 291 292 293 294 295 297 298 300 301 301 302 303 305 306 308 309 309 310 310 311 312
280 279 277 274 273 273 273 274 276 277 278 280 283 285 287 288 289 289 289 289 290 291 292 293 295 296 298 299 300 300 301 302 304 306 307 308 309 310 310 312 313 314
279 279 276 274 274 274 274 274 275 277 280 282 284 285 286 286 286 287 289 290 292 294 295 296 296 297 298 299 299 299 300 303 306 307 308 309 309 310 312 313 314 316
279 278 276 276 275 275 275 277 278 280 282 283 284 284 284 285 287 289 290 292 294 297 298 298 298 297 297 297 297 300 303 306 307 308 309 310 311 312 313 315 317 319
276 276 276 276 277 277 279 281 282 283 283 283 282 283 284 286 288 289 291 293 296 297 297 297 296 295 296 298 301 304 306 308 309 309 310 311 312 314 316 318 320 322
272 273 275 277 279 281 283 285 285 284 283 282 282 283 285 287 288 289 292 295 296 296 296 295 295 296 299 302 305 306 308 309 310 311 311 312 314 317 320 322 323 323
270 273 276 278 281 283 285 286 286 286 285 284 285 285 287 289 291 292 293 294 294 294 295 295 296 299 302 304 307 309 310 312 312 312 313 315 318 320 322 323 324 324